User: anonymous   Login
Location: Fort Hays State University
(38.8712°N, 99.3432°W)
Time: 09:42:02
(UTC-05:00)
Language:

Cosmos 2279 Rocket - Orbit

View from above orbital plane
View from above orbital plane
View from above satellite
View from above satellite

Ground track
Ground track

The orbit data is extracted from the following two-line orbital elements,

1 23093U 94024B   17115.71704900 +.00000138 +00000-0 +12315-3 0  9996
2 23093 082.9458 153.5271 0011027 144.6280 215.5611 13.77724273623965
Epoch (UTC): 25 April 2017 17:12:33
Eccentricity: 0.0011027
inclination: 82.9458°
perigee height: 964 km
apogee height: 980 km
right ascension of ascending node: 153.5271°
argument of perigee: 144.6280°
revolutions per day: 13.77724273
mean anomaly at epoch: 215.5611°
orbit number at epoch: 62396

The dashed part of the orbit path shows where the satellite is in the earth's shadow,  

DLR